Regional Weather Roundup
Issued by NWS

Home | Current Version | Previous Version | Graphics & Text | Print | Product List | Glossary On
Versions: 1 2 3 4 5 6 7 8 9 10 11 12 13 14 15 16 17 18 19 20 21 22 23 24 25 26 27 28 29 30 31 32 33 34 35 36 37 38 39 40 41 42 43 44 45 46 47 48 49 50
000
ASUS45 KABQ 231601
RWRNM
NEW MEXICO REGIONAL WEATHER ROUNDUP
NATIONAL WEATHER SERVICE ALBUQUERQUE NM
1000 AM MDT SAT SEP 23 2017

NOTE: "FAIR" MEANS FEW OR NO CLOUDS BELOW 12,000 FEET AGL WITH NO
       SIGNIFICANT WEATHER OR OBSTRUCTIONS TO VISION.

      THIS PRODUCT IS RELEASED AS TWO VERSIONS.  ONE VERSION NEAR
      THE TOP OF THE HOUR CONTAINING PRELIMINARY DATA FROM ALBUQUERQUE
      AND OTHER STATIONS.  A FINAL VERSION WITH ADDITIONAL DATA IS
      ISSUED ABOUT 10 MINUTES AFTER THE HOUR.

NMZ501-503-504-510>518-231700-
NORTHWEST PLATEAU/NORTHCENTRAL MOUNTAINS

CITY           SKY/WX    TMP DP  RH WIND       PRES   REMARKS
FARMINGTON     FAIR      58  47  66 W14       29.92R
LOS ALAMOS     LGT RAIN  62  46  56 S8        30.03R
SANTA FE       CLOUDY    66  51  58 SE20      29.96S
TAOS           CLOUDY    64  42  44 S7        30.03F
ANGEL FIRE     PTSUNNY   59  47  65 S12       30.09F

$$
NMZ402-403-502-505>509-231700-
WESTCENTRAL MOUNTAINS/SOUTHWEST MOUNTAINS

CITY           SKY/WX    TMP DP  RH WIND       PRES   REMARKS
GALLUP         PTSUNNY   57  44  62 W14       29.95S
GRANTS         PTSUNNY   68  39  34 S20G26    29.95F
SILVER CITY    FAIR      70  48  46 S6        29.95S

$$
NMZ407-409-411-412-231700-
SOUTHERN DESERTS

CITY           SKY/WX    TMP DP  RH WIND       PRES   REMARKS
DEMING         CLOUDY    74  47  38 VRB3      29.89R
LAS CRUCES     PTSUNNY   76  51  41 SE12      29.91S
HOLLOMAN AFB   PTSUNNY   72  55  54 E10       29.91F
ALAMOGORDO     PTSUNNY   70  57  64 NE6       29.91F
T OR C         CLOUDY    73  47  39 S13       29.90R

$$
NMZ519>523-231700-
CENTRAL VALLEYS/CENTRAL HIGHLANDS

CITY           SKY/WX    TMP DP  RH WIND       PRES   REMARKS
ALBUQUERQUE    PTSUNNY   69  46  43 SW6       29.90S
DOUBLE EAGLE   PTSUNNY   72  43  35 S18       29.93S
CLINES CORNERS LGT RAIN  60  55  83 SE9       30.04S
BELEN          CLOUDY    73  39  29 S16       29.90R
SOCORRO        PTSUNNY   77  40  27 S17G24    29.89R

$$
NMZ524>526-539-540-231700-
SOUTHCENTRAL MOUNTAINS

CITY           SKY/WX    TMP DP  RH WIND       PRES   REMARKS
RUIDOSO        NOT AVBL

$$
NMZ527>531-231700-
NORTHEAST HIGHLANDS/NORTHEAST PLAINS

CITY           SKY/WX    TMP DP  RH WIND       PRES   REMARKS
LAS VEGAS      PTSUNNY   60  56  86 S15       30.03S
RATON          NOT AVBL
CLAYTON        PTSUNNY   69  61  75 S18       29.96R

$$
NMZ532>537-231700-
EASTCENTRAL PLAINS

CITY           SKY/WX    TMP DP  RH WIND       PRES   REMARKS
SANTA ROSA     LGT RAIN  64  63  97 SE14      29.92S
TUCUMCARI      LGT RAIN  74  63  68 S20       29.91R
CANNON AFB     CLOUDY    72  70  94 S17       29.96S
CLOVIS AIRPORT CLOUDY    71  63  75 S18G28    29.96S

$$
NMZ028-029-538-231700-
SOUTHEAST PLAINS

CITY           SKY/WX    TMP DP  RH WIND       PRES   REMARKS
ROSWELL        CLOUDY    72  65  78 S17       29.91R THUNDER
ARTESIA        CLOUDY    72  70  94 S14G21    29.92R
CARLSBAD       PTSUNNY   75  68  78 S14       29.88R
HOBBS          CLOUDY    73  64  73 S21G28    29.93R


$$




USA.gov is the U.S. government's official web portal to all federal, state and local government web resources and services.